Simultaneous Nadir Overpasses (SNOs) Predictions

Prediction of SNOs between NPP and METOP-C Satellite Orbit:

Table of predicted SNOs for the next 14.0 days since TLE Epoch: 2/3/2022
Index Date (NPP) Time (NPP) Lat,Lon (NPP) SZA (NPP ) Date (METOP-C) Time (METOP-C) Lat,Lon (METOP-C) SZA (METOP-C ) Distance(km) Time Diff (sec)
1 02/16/2022 11:06:23 73.31, 4.15 85.87 02/16/2022 11:07:31 73.23, 6.35 85.66 71.01 68
2 02/16/2022 11:57:06 -73.24, 171.60 94.22 02/16/2022 11:58:15 -73.19, 173.58 94.40 63.65 69
3 02/16/2022 12:47:47 73.01, -20.57 85.51 02/16/2022 12:48:58 72.96, -19.58 85.39 32.79 71
4 02/16/2022 13:38:30 -72.95, 146.88 94.57 02/16/2022 13:39:42 -72.92, 147.65 94.66 25.53 72
5 02/16/2022 14:29:12 72.76, -45.42 85.21 02/16/2022 14:30:24 72.74, -45.39 85.17 2.93 72
6 02/16/2022 15:19:56 -72.75, 121.92 94.82 02/16/2022 15:21:07 -72.75, 121.95 94.84 1.17 71
7 02/16/2022 16:10:41 72.71, -70.70 85.14 02/16/2022 16:11:46 72.71, -70.78 85.13 2.48 65
8 02/16/2022 17:01:25 -72.70, 96.64 94.89 02/16/2022 17:02:29 -72.72, 96.57 94.88 3.39 64
9 02/16/2022 17:52:11 72.72, -96.08 85.12 02/16/2022 17:53:07 72.74, -96.05 85.13 3.02 56
10 02/16/2022 18:42:55 -72.71, 71.26 94.91 02/16/2022 18:43:51 -72.70, 71.18 94.93 2.49 56
11 02/16/2022 19:33:41 72.72,-121.47 85.10 02/16/2022 19:34:29 72.72,-121.44 85.08 0.87 48
12 02/16/2022 20:24:25 -72.71, 45.87 94.93 02/16/2022 20:25:12 -72.73, 45.90 94.93 2.57 47
13 02/16/2022 21:15:11 72.73,-146.85 85.08 02/16/2022 21:15:51 72.70,-146.82 85.04 2.94 40
14 02/16/2022 22:05:55 -72.71, 20.49 94.95 02/16/2022 22:06:34 -72.71, 20.52 94.97 0.99 39
15 02/16/2022 22:56:40 72.68,-172.13 85.00 02/16/2022 22:57:13 72.68,-172.21 85.00 2.70 33
16 02/16/2022 23:47:25 -72.72, -4.89 94.97 02/16/2022 23:47:56 -72.69, -4.87 95.01 3.35 31
17 02/17/2022 00:38:10 72.68, 162.49 84.98 02/17/2022 00:38:34 72.71, 162.51 85.00 2.88 24
18 02/17/2022 01:28:54 -72.67, -30.17 95.05 02/17/2022 01:29:18 -72.67, -30.25 95.06 2.68 24
19 02/17/2022 02:19:40 72.69, 137.11 84.96 02/17/2022 02:19:56 72.69, 137.13 84.95 0.65 16



Historial Predications of SNOs between NPP and METOP-C
